Weather History for KMXF - June, 2013

Change the Weather History Date:

Saturday, June 1, 2013

  Actual Average Record
Temperature  
Mean Temperature 80 °F -  
Max Temperature 91 °F 85 °F 100 °F (1998)
Min Temperature 71 °F 66 °F 64 °F (1997)
Cooling Degree Days 16    
Growing Degree Days 30 (Base 50)    
Moisture  
Dew Point 70 °F    
Average Humidity 68    
Maximum Humidity 90    
Minimum Humidity 51    
Precipitation  
Precipitation 0.00 in - - ()
Sea Level Pressure  
Sea Level Pressure 30.01 in    
Wind  
Wind Speed 6 mph (South)    
Max Wind Speed 14 mph    
Max Gust Speed 18 mph    
Visibility 10 miles    
Events Rain    
Averages and records for this station are not official NWS values.
T = Trace of Precipitation, MM = Missing Value Source: NWS Daily Summary

Daily Weather History Graph

Daily Weather History Graph

Search for Another Location

Airport or City:

Trip Planner

Search our weather history database for the weather conditions in past years. The results will help you decide how hot, cold, wet, or windy it might be!

Date:

Astronomy

Jun. 01, 2013 Rise Set
Actual Time 5:39 AM CDT 7:47 PM CDT
Civil Twilight 5:11 AM CDT 8:15 PM CDT
Nautical Twilight 4:37 AM CDT 8:49 PM CDT
Astronomical Twilight 4:00 AM CDT 9:26 PM CDT
Moon 1:13 AM CDT (6/1) 1:36 PM CDT (6/1)
Length of Visible Light 15h 04m
Length of Day
14h 08m
Last Quarter, 40% of the Moon is Illuminated
Jun 1
Last Quarter
Jun 8
New
Jun 16
First Quarter
Jun 23
Full
Jun 29
Last Quarter

Hourly Weather History & Observations

Time (CDT) Temp. Heat Index Dew Point Humidity Pressure Visibility Wind Dir Wind Speed Gust Speed Precip Events Conditions
12:58 AM 72.7 °F - 69.3 °F 89% 30.04 in 10.0 mi Calm Calm - N/A   Clear
1:58 AM 72.5 °F - 69.4 °F 90% 30.05 in 10.0 mi Calm Calm - N/A   Overcast
2:58 AM 73.9 °F - 69.6 °F 86% 30.06 in 10.0 mi SE 5.8 mph - N/A   Mostly Cloudy
3:58 AM 71.6 °F - 68.0 °F 88% 30.05 in 10.0 mi SE 4.6 mph - N/A   Partly Cloudy
4:58 AM 71.4 °F - 68.4 °F 90% 30.04 in 10.0 mi SE 2.3 mph - N/A   Scattered Clouds
5:58 AM 72.3 °F - 68.9 °F 89% 30.05 in 10.0 mi East 3.5 mph - N/A   Scattered Clouds
6:58 AM 75.4 °F - 67.8 °F 77% 30.05 in 10.0 mi SE 9.2 mph - N/A   Clear
7:58 AM 77.9 °F - 68.2 °F 72% 30.05 in 10.0 mi SE 13.8 mph - N/A   Overcast
8:58 AM 81.9 °F 85.6 °F 69.8 °F 67% 30.06 in 10.0 mi SSE 8.1 mph - N/A   Clear
9:43 AM 84.2 °F 88.4 °F 69.8 °F 62% 30.04 in 10.0 mi SSE 12.7 mph - N/A   Overcast
9:58 AM 82.9 °F 87.2 °F 70.3 °F 66% 30.05 in 10.0 mi South 11.5 mph - N/A   Mostly Cloudy
10:23 AM 84.2 °F 88.4 °F 69.8 °F 62% 30.04 in 10.0 mi South 10.4 mph - N/A   Overcast
10:28 AM 84.2 °F 89.6 °F 71.6 °F 66% 30.04 in 10.0 mi South 11.5 mph - N/A   Overcast
10:33 AM 84.2 °F 89.6 °F 71.6 °F 66% 30.04 in 10.0 mi South 9.2 mph - N/A   Overcast
10:58 AM 84.7 °F 89.1 °F 70.0 °F 61% 30.05 in 10.0 mi South 13.8 mph - N/A   Overcast
11:58 AM 86.2 °F 91.1 °F 70.2 °F 59% 30.05 in 10.0 mi SSE 8.1 mph - N/A   Mostly Cloudy
12:58 PM 89.2 °F 94.5 °F 69.8 °F 53% 30.04 in 10.0 mi South 8.1 mph - N/A   Mostly Cloudy
1:14 PM 87.8 °F 92.6 °F 69.8 °F 55% 30.03 in 10.0 mi South 9.2 mph - N/A Rain Light Rain
1:24 PM 87.8 °F 92.6 °F 69.8 °F 55% 30.02 in 10.0 mi South 6.9 mph - N/A   Scattered Clouds
1:58 PM 89.4 °F 94.8 °F 70.0 °F 53% 30.01 in 10.0 mi South 10.4 mph 18.4 mph 0.00 in   Scattered Clouds
2:03 PM 87.8 °F 92.6 °F 69.8 °F 55% 30.01 in 10.0 mi SSW 8.1 mph - N/A Rain Light Rain
2:14 PM 87.8 °F 92.6 °F 69.8 °F 55% 30.01 in 10.0 mi South 6.9 mph - N/A   Mostly Cloudy
2:27 PM 87.8 °F 93.8 °F 71.6 °F 58% 30.00 in 10.0 mi South 10.4 mph - N/A Rain Light Rain
2:38 PM 87.8 °F 93.8 °F 71.6 °F 58% 30.00 in 10.0 mi SW 6.9 mph - N/A   Mostly Cloudy
2:58 PM 86.9 °F 92.5 °F 71.1 °F 59% 30.00 in 10.0 mi SW 5.8 mph - 0.00 in   Mostly Cloudy
3:58 PM 90.7 °F 96.4 °F 70.5 °F 51% 29.98 in 10.0 mi South 9.2 mph - N/A   Scattered Clouds
4:52 PM 84.2 °F 88.4 °F 69.8 °F 62% 29.97 in 10.0 mi South 12.7 mph - N/A Rain Light Rain
4:58 PM 84.4 °F 89.0 °F 70.7 °F 63% 29.98 in 10.0 mi South 9.2 mph - 0.00 in Rain Light Rain
5:10 PM 82.4 °F 87.2 °F 71.6 °F 70% 29.96 in 10.0 mi South 6.9 mph - N/A   Mostly Cloudy
5:29 PM 86.0 °F 91.8 °F 71.6 °F 62% 29.95 in 10.0 mi South 8.1 mph - N/A   Light Drizzle
5:37 PM 86.0 °F 91.8 °F 71.6 °F 62% 29.95 in 10.0 mi South 10.4 mph - N/A   Mostly Cloudy
5:58 PM 85.6 °F 90.8 °F 70.9 °F 61% 29.95 in 10.0 mi South 10.4 mph - 0.00 in   Partly Cloudy
6:58 PM 83.1 °F 88.1 °F 71.8 °F 68% 29.97 in 10.0 mi South 2.3 mph - N/A   Scattered Clouds
7:58 PM 81.0 °F 84.7 °F 70.7 °F 71% 29.99 in 10.0 mi SSE 6.9 mph - N/A   Overcast
8:58 PM 79.2 °F - 70.9 °F 76% 29.99 in 10.0 mi SE 6.9 mph - N/A   Scattered Clouds
9:58 PM 77.0 °F - 70.7 °F 81% 30.00 in 10.0 mi SSE 4.6 mph - N/A   Partly Cloudy
10:58 PM 76.3 °F - 71.6 °F 85% 29.99 in 10.0 mi SSE 6.9 mph - N/A   Partly Cloudy
11:58 PM 76.3 °F - 72.1 °F 87% 30.00 in 10.0 mi South 5.8 mph - N/A   Partly Cloudy